sat.trackr.live / text

‹ back to catalog

LEMUR-2-BASS

NORAD 58259 · 2023-174D

PAYLOAD ACTIVE UNKNOWN

§ Identity

Operator
Country
US
Launch date
2023-11-11
Launch site
AFWTR
Launch vehicle
Mass (kg)
RCS (m²)

Purposes: earth_obs

External: N2YO · Heavens-Above · Gunter

§ Orbital elements

Epoch: 2026-09-19T11:23:07.816992Z

Period
93.15 min
Inclination
97.3797°
Eccentricity
0.0006619
Mean motion
15.45937503 rev/d
Perigee alt
424.1 km
Apogee alt
433.1 km
Semi-major
6,806.8 km
B*
2.8848e-4
RAAN
348.6768°
Arg perigee
177.6369°
Mean anomaly
182.4913°
Rev number
15,991

§ Raw data

LEMUR-2-BASS1 58259U 23174D   26262.47439603  .00013968  00000+0  28848-3 0  99992 58259  97.3797 348.6768 0006619 177.6369 182.4913 15.45937503159911

JSON: /api/v1/satellites/58259 · /tle

For live sub-satellite position, see the globe view (requires WebGL).

§ Visibility from observer

Set your observer location to see the next 7 days of passes ≥ 10°. The values pass through the URL so the page stays shareable.

No JS? Fill the form by hand. The geolocation button needs JavaScript.